• En España
  • Lista de países
  • Para 7 días
  • Temperatura del agua
  • Mapa Satelital
  • El tiempo en el mapa
  • Informadores
  • user-avatar
    Iniciar sesión

    Tiempo cada hora Bolshaya Lysva

    Hoy, 15 Octubre, Lunes

    Tiempo Temperatura Precipitaciones Viento Presión Humedad
    00:00 -3°C° 0 mm 2 mps 750 mmHg 89%
    01:00 -1°C° 0 mm 1 mps 750 mmHg 91%
    02:00 -1°C° 0 mm 1 mps 750 mmHg 92%
    03:00 -1°C° 0 mm 1 mps 751 mmHg 93%
    04:00 -1°C° 0 mm 1 mps 751 mmHg 95%
    05:00 -1°C° 0 mm 1 mps 751 mmHg 94%
    06:00 -1°C° 0 mm 1 mps 751 mmHg 94%
    07:00 -1°C° 0 mm 1 mps 751 mmHg 93%
    08:00 0°C° 0 mm 1 mps 751 mmHg 86%
    09:00 +1°C° 0 mm 1 mps 751 mmHg 80%
    10:00 +3°C° 0 mm 1 mps 751 mmHg 71%
    11:00 +3°C° 0 mm 1 mps 751 mmHg 68%
    12:00 +4°C° 0 mm 1 mps 751 mmHg 65%
    13:00 +4°C° 0 mm 1 mps 751 mmHg 62%
    14:00 +4°C° 0 mm 1 mps 751 mmHg 65%
    15:00 +4°C° 0 mm 1 mps 751 mmHg 68%
    16:00 +3°C° 0 mm 1 mps 751 mmHg 70%
    17:00 +3°C° 0 mm 1 mps 751 mmHg 73%
    18:00 +2°C° 0 mm 1 mps 751 mmHg 77%
    19:00 +2°C° 0 mm 1 mps 751 mmHg 80%
    20:00 +2°C° 0.2 mm 1 mps 751 mmHg 82%
    21:00 -1°C° 0.2 mm 2 mps 751 mmHg 85%
    22:00 -1°C° 0.2 mm 2 mps 751 mmHg 88%
    23:00 -1°C° 0.7 mm 2 mps 750 mmHg 89%

    Mañana, 16 Octubre, Martes

    Tiempo Temperatura Precipitaciones Viento Presión Humedad
    00:00 -1°C° 0.7 mm 3 mps 750 mmHg 90%
    01:00 -1°C° 0.7 mm 3 mps 750 mmHg 92%
    02:00 -1°C° 0.3 mm 3 mps 750 mmHg 91%
    03:00 -1°C° 0.3 mm 3 mps 749 mmHg 91%
    04:00 -1°C° 0.3 mm 3 mps 749 mmHg 90%
    05:00 0°C° 0.1 mm 3 mps 749 mmHg 91%
    06:00 0°C° 0.1 mm 3 mps 749 mmHg 91%
    07:00 0°C° 0.1 mm 3 mps 748 mmHg 92%
    08:00 0°C° 0 mm 3 mps 748 mmHg 92%
    09:00 0°C° 0 mm 3 mps 748 mmHg 92%
    10:00 +1°C° 0 mm 3 mps 748 mmHg 93%
    11:00 +1°C° 0 mm 3 mps 748 mmHg 93%
    12:00 +2°C° 0 mm 3 mps 748 mmHg 93%
    13:00 +2°C° 0 mm 3 mps 748 mmHg 93%
    14:00 +2°C° 0.1 mm 3 mps 748 mmHg 94%
    15:00 +2°C° 0.1 mm 3 mps 747 mmHg 95%
    16:00 +2°C° 0.1 mm 3 mps 747 mmHg 96%
    17:00 +2°C° 0.1 mm 3 mps 747 mmHg 97%
    18:00 +3°C° 0.1 mm 3 mps 747 mmHg 97%
    19:00 +4°C° 0.1 mm 2 mps 747 mmHg 98%
    20:00 +4°C° 0.1 mm 2 mps 746 mmHg 98%
    21:00 +4°C° 0.1 mm 2 mps 746 mmHg 98%
    22:00 +4°C° 0.1 mm 2 mps 745 mmHg 98%
    23:00 +4°C° 0.1 mm 2 mps 745 mmHg 98%

    Pasado mañana, 17 Octubre, Miércoles

    Tiempo Temperatura Precipitaciones Viento Presión Humedad
    00:00 +4°C° 0.1 mm 3 mps 744 mmHg 98%
    01:00 +4°C° 0.1 mm 3 mps 743 mmHg 98%
    02:00 +4°C° 0 mm 3 mps 742 mmHg 97%
    03:00 +5°C° 0 mm 4 mps 741 mmHg 97%
    04:00 +5°C° 0 mm 4 mps 741 mmHg 96%
    05:00 +5°C° 0.1 mm 4 mps 740 mmHg 96%
    06:00 +5°C° 0.1 mm 4 mps 739 mmHg 95%
    07:00 +5°C° 0.1 mm 5 mps 738 mmHg 95%
    08:00 +5°C° 0.1 mm 5 mps 738 mmHg 93%
    09:00 +6°C° 0.1 mm 5 mps 737 mmHg 91%
    10:00 +6°C° 0.1 mm 5 mps 737 mmHg 89%
    11:00 +5°C° 0.2 mm 6 mps 737 mmHg 86%
    12:00 +5°C° 0.2 mm 6 mps 737 mmHg 82%
    13:00 +4°C° 0.2 mm 7 mps 737 mmHg 78%
    14:00 +4°C° 0.2 mm 7 mps 738 mmHg 77%
    15:00 +4°C° 0.2 mm 7 mps 738 mmHg 76%
    16:00 +3°C° 0.2 mm 7 mps 739 mmHg 75%
    17:00 +3°C° 0.1 mm 7 mps 740 mmHg 75%
    18:00 +3°C° 0.1 mm 7 mps 740 mmHg 75%
    19:00 +3°C° 0.1 mm 7 mps 741 mmHg 75%
    20:00 +3°C° 0.1 mm 6 mps 742 mmHg 77%
    21:00 +2°C° 0.1 mm 6 mps 742 mmHg 78%
    22:00 +2°C° 0.1 mm 6 mps 743 mmHg 80%
    23:00 +2°C° 0 mm 6 mps 743 mmHg 81%

    18 Octubre, Jueves

    Tiempo Temperatura Precipitaciones Viento Presión Humedad
    00:00 +2°C° 0 mm 6 mps 744 mmHg 81%
    01:00 +2°C° 0 mm 6 mps 744 mmHg 82%
    02:00 +2°C° 0 mm 6 mps 744 mmHg 82%
    03:00 +2°C° 0 mm 5 mps 744 mmHg 83%
    04:00 +2°C° 0 mm 5 mps 744 mmHg 83%
    05:00 +2°C° 0.1 mm 5 mps 744 mmHg 83%
    06:00 +2°C° 0.1 mm 5 mps 744 mmHg 83%
    07:00 +2°C° 0.1 mm 5 mps 744 mmHg 83%
    08:00 +2°C° 0.1 mm 5 mps 745 mmHg 82%
    09:00 +2°C° 0.1 mm 5 mps 745 mmHg 80%
    10:00 +2°C° 0.1 mm 6 mps 745 mmHg 79%
    11:00 +2°C° 0.2 mm 6 mps 745 mmHg 78%
    12:00 +2°C° 0.2 mm 5 mps 745 mmHg 78%
    13:00 +3°C° 0.2 mm 5 mps 745 mmHg 77%
    14:00 +2°C° 0.1 mm 5 mps 745 mmHg 77%
    15:00 +2°C° 0.1 mm 5 mps 745 mmHg 77%
    16:00 +2°C° 0.1 mm 5 mps 746 mmHg 77%
    17:00 +1°C° 0.1 mm 4 mps 746 mmHg 80%
    18:00 +1°C° 0.1 mm 3 mps 746 mmHg 83%
    19:00 +1°C° 0.1 mm 3 mps 746 mmHg 85%
    20:00 +1°C° 0 mm 2 mps 747 mmHg 87%
    21:00 +1°C° 0 mm 2 mps 747 mmHg 89%
    22:00 -1°C° 0 mm 2 mps 747 mmHg 92%
    23:00 -1°C° 0 mm 2 mps 747 mmHg 92%

    19 Octubre, Viernes

    Tiempo Temperatura Precipitaciones Viento Presión Humedad
    00:00 0°C° 0 mm 1 mps 747 mmHg 93%
    01:00 0°C° 0 mm 1 mps 747 mmHg 94%
    02:00 0°C° 0 mm 1 mps 747 mmHg 94%
    03:00 0°C° 0 mm 1 mps 747 mmHg 94%
    04:00 0°C° 0 mm 1 mps 747 mmHg 94%
    05:00 0°C° 0 mm 1 mps 747 mmHg 94%
    06:00 0°C° 0 mm 1 mps 747 mmHg 94%
    07:00 0°C° 0 mm 1 mps 747 mmHg 94%
    08:00 +1°C° 0 mm 1 mps 747 mmHg 90%
    09:00 +3°C° 0 mm 1 mps 747 mmHg 86%
    10:00 +3°C° 0 mm 2 mps 746 mmHg 82%
    11:00 +4°C° 0 mm 2 mps 746 mmHg 80%
    12:00 +5°C° 0 mm 2 mps 746 mmHg 78%
    13:00 +4°C° 0 mm 3 mps 745 mmHg 76%
    14:00 +4°C° 0 mm 3 mps 745 mmHg 80%
    15:00 +4°C° 0 mm 3 mps 744 mmHg 84%
    16:00 +3°C° 0 mm 3 mps 744 mmHg 88%
    17:00 +3°C° 0.6 mm 3 mps 743 mmHg 90%
    18:00 +3°C° 0.6 mm 3 mps 743 mmHg 93%
    19:00 +3°C° 0.6 mm 3 mps 742 mmHg 95%
    20:00 +3°C° 1 mm 3 mps 741 mmHg 95%
    21:00 +4°C° 1 mm 3 mps 741 mmHg 96%
    22:00 +4°C° 1 mm 4 mps 740 mmHg 96%
    23:00 +5°C° 0.7 mm 4 mps 740 mmHg 96%

    20 Octubre, Sábado

    Tiempo Temperatura Precipitaciones Viento Presión Humedad
    00:00 +5°C° 0.7 mm 4 mps 740 mmHg 96%
    01:00 +6°C° 0.7 mm 4 mps 740 mmHg 96%
    02:00 +5°C° 0.1 mm 4 mps 740 mmHg 94%
    03:00 +5°C° 0.1 mm 4 mps 740 mmHg 93%
    04:00 +5°C° 0.1 mm 4 mps 740 mmHg 92%
    05:00 +4°C° 0 mm 4 mps 741 mmHg 92%
    06:00 +3°C° 0 mm 4 mps 741 mmHg 92%
    07:00 +2°C° 0 mm 3 mps 741 mmHg 92%
    08:00 +3°C° 0 mm 3 mps 741 mmHg 89%
    09:00 +3°C° 0 mm 3 mps 742 mmHg 87%
    10:00 +3°C° 0 mm 3 mps 742 mmHg 84%
    11:00 +4°C° 0 mm 4 mps 742 mmHg 83%
    12:00 +4°C° 0 mm 4 mps 742 mmHg 82%
    13:00 +4°C° 0 mm 4 mps 742 mmHg 80%
    14:00 +4°C° 0.1 mm 4 mps 742 mmHg 82%
    15:00 +3°C° 0.1 mm 3 mps 742 mmHg 84%
    16:00 +3°C° 0.1 mm 3 mps 742 mmHg 86%
    17:00 +3°C° 0.1 mm 3 mps 742 mmHg 86%
    18:00 +3°C° 0.1 mm 3 mps 742 mmHg 87%
    19:00 +3°C° 0.1 mm 3 mps 743 mmHg 88%
    20:00 +3°C° 0 mm 3 mps 743 mmHg 88%
    21:00 +2°C° 0 mm 3 mps 743 mmHg 88%
    22:00 +2°C° 0 mm 3 mps 743 mmHg 88%
    23:00 +2°C° 0.1 mm 3 mps 743 mmHg 89%
    Mostrar más